Time,TemperatureF,DewpointF,PressureIn,WindDirection,WindDirectionDegrees,WindSpeedMPH,WindSpeedGustMPH,Humidity,HourlyPrecipIn,Conditions,Clouds,dailyrainin,SolarRadiationWatts/m^2,SoftwareType,DateUTC
2013-05-06 08:00:00,65.0,26.0,30.01,ENE,73,6.0,9.0,23,-99.99,,,-99.99,264.290009,,2013-05-06 14:00:00,
2013-05-06 08:01:00,60.0,22.0,30.01,ESE,106,6.0,9.0,22,-99.99,,,-99.99,40.450001,,2013-05-06 14:01:00,
2013-05-06 08:11:00,62.0,24.0,30.01,ESE,111,5.0,8.0,23,-99.99,,,-99.99,110.180000,,2013-05-06 14:11:00,
2013-05-06 08:21:00,62.0,24.0,30.01,ESE,111,5.0,8.0,23,-99.99,,,-99.99,110.180000,,2013-05-06 14:21:00,
2013-05-06 08:32:00,65.0,26.0,30.01,ENE,73,6.0,9.0,23,-99.99,,,-99.99,264.290009,,2013-05-06 14:32:00,
2013-05-06 08:42:00,65.0,26.0,30.01,ENE,73,6.0,9.0,23,-99.99,,,-99.99,264.290009,,2013-05-06 14:42:00,
2013-05-06 08:52:00,65.0,26.0,30.01,ENE,73,6.0,9.0,23,-99.99,,,-99.99,264.290009,,2013-05-06 14:52:00,
2013-05-06 09:42:00,69.0,36.0,30.02,WNW,298,17.0,25.0,29,-99.99,,,-99.99,551.590027,,2013-05-06 15:42:00,
2013-05-06 09:53:00,69.0,36.0,30.02,WNW,298,17.0,25.0,29,-99.99,,,-99.99,551.590027,,2013-05-06 15:53:00,
2013-05-06 10:03:00,70.0,36.0,30.03,WNW,298,17.0,23.0,28,-99.99,,,-99.99,605.979980,,2013-05-06 16:03:00,
2013-05-06 10:13:00,70.0,35.0,30.03,WNW,299,16.0,24.0,27,-99.99,,,-99.99,618.530029,,2013-05-06 16:13:00,
2013-05-06 10:23:00,70.0,35.0,30.03,WNW,299,16.0,24.0,27,-99.99,,,-99.99,618.530029,,2013-05-06 16:23:00,
2013-05-06 10:32:00,71.0,35.0,30.03,WNW,296,16.0,25.0,26,-99.99,,,-99.99,700.820007,,2013-05-06 16:32:00,
2013-05-06 10:42:00,71.0,35.0,30.03,WNW,296,16.0,25.0,26,-99.99,,,-99.99,700.820007,,2013-05-06 16:42:00,
2013-05-06 10:52:00,71.0,35.0,30.03,WNW,296,16.0,25.0,26,-99.99,,,-99.99,700.820007,,2013-05-06 16:52:00,
2013-05-06 11:03:00,72.0,34.0,30.03,WNW,289,15.0,24.0,24,-99.99,,,-99.99,771.950012,,2013-05-06 17:03:00,
2013-05-06 11:12:00,72.0,34.0,30.03,WNW,289,15.0,24.0,24,-99.99,,,-99.99,771.950012,,2013-05-06 17:12:00,
2013-05-06 11:23:00,72.0,34.0,30.03,WNW,294,14.0,23.0,24,-99.99,,,-99.99,743.359985,,2013-05-06 17:23:00,
2013-05-06 11:31:00,72.0,34.0,30.03,WNW,294,14.0,23.0,24,-99.99,,,-99.99,743.359985,,2013-05-06 17:31:00,
2013-05-06 11:42:00,73.0,34.0,30.03,WNW,283,8.0,18.0,23,-99.99,,,-99.99,860.510010,,2013-05-06 17:42:00,
2013-05-06 11:52:00,73.0,34.0,30.03,WNW,283,8.0,18.0,23,-99.99,,,-99.99,860.510010,,2013-05-06 17:52:00,
2013-05-06 12:01:00,74.0,33.0,30.03,SW,235,11.0,25.0,22,-99.99,,,-99.99,926.760010,,2013-05-06 18:01:00,
2013-05-06 12:12:00,74.0,33.0,30.03,SW,235,11.0,25.0,22,-99.99,,,-99.99,926.760010,,2013-05-06 18:12:00,
2013-05-06 12:21:00,75.0,32.0,30.02,SW,232,17.0,29.0,21,-99.99,,,-99.99,928.849976,,2013-05-06 18:21:00,
2013-05-06 12:31:00,75.0,32.0,30.02,SW,232,17.0,29.0,21,-99.99,,,-99.99,928.849976,,2013-05-06 18:31:00,
2013-05-06 12:43:00,74.0,32.0,30.02,West,267,12.0,24.0,20,-99.99,,,-99.99,561.349976,,2013-05-06 18:43:00,
2013-05-06 12:52:00,74.0,32.0,30.02,West,267,12.0,24.0,20,-99.99,,,-99.99,561.349976,,2013-05-06 18:52:00,
2013-05-06 13:01:00,74.0,31.0,30.02,WSW,242,15.0,22.0,20,-99.99,,,-99.99,787.989990,,2013-05-06 19:01:00,
2013-05-06 13:11:00,74.0,31.0,30.02,West,265,7.0,17.0,20,-99.99,,,-99.99,460.940002,,2013-05-06 19:11:00,
2013-05-06 13:22:00,74.0,31.0,30.02,West,265,7.0,17.0,20,-99.99,,,-99.99,460.940002,,2013-05-06 19:22:00,
2013-05-06 13:32:00,75.0,32.0,30.01,West,264,11.0,22.0,21,-99.99,,,-99.99,735.690002,,2013-05-06 19:32:00,
2013-05-06 13:41:00,76.0,32.0,30.00,WSW,241,13.0,24.0,20,-99.99,,,-99.99,724.530029,,2013-05-06 19:41:00,
2013-05-06 13:52:00,76.0,32.0,30.00,WSW,241,13.0,24.0,20,-99.99,,,-99.99,724.530029,,2013-05-06 19:52:00,
2013-05-06 14:02:00,75.0,31.0,30.00,WSW,244,11.0,18.0,19,-99.99,,,-99.99,979.750000,,2013-05-06 20:02:00,
2013-05-06 14:11:00,77.0,31.0,29.99,SW,232,10.0,19.0,19,-99.99,,,-99.99,1046.000000,,2013-05-06 20:11:00,
2013-05-06 14:21:00,77.0,31.0,29.99,SW,232,10.0,19.0,19,-99.99,,,-99.99,1046.000000,,2013-05-06 20:21:00,
2013-05-06 14:32:00,77.0,31.0,29.99,West,265,15.0,26.0,18,-99.99,,,-99.99,1047.390015,,2013-05-06 20:32:00,
2013-05-06 14:42:00,77.0,31.0,29.99,SW,232,13.0,27.0,18,-99.99,,,-99.99,962.320007,,2013-05-06 20:42:00,
2013-05-06 14:52:00,77.0,31.0,29.99,SW,232,13.0,27.0,18,-99.99,,,-99.99,962.320007,,2013-05-06 20:52:00,
2013-05-06 15:01:00,77.0,31.0,29.99,SW,232,13.0,27.0,18,-99.99,,,-99.99,962.320007,,2013-05-06 21:01:00,
2013-05-06 15:11:00,77.0,30.0,29.98,WSW,242,14.0,26.0,18,-99.99,,,-99.99,934.429993,,2013-05-06 21:11:00,
2013-05-06 15:21:00,77.0,30.0,29.98,WSW,242,14.0,26.0,18,-99.99,,,-99.99,934.429993,,2013-05-06 21:21:00,
2013-05-06 15:32:00,78.0,30.0,29.97,West,263,14.0,26.0,17,-99.99,,,-99.99,899.559998,,2013-05-06 21:32:00,
2013-05-06 15:43:00,78.0,30.0,29.96,WSW,243,13.0,24.0,17,-99.99,,,-99.99,847.960022,,2013-05-06 21:43:00,
2013-05-06 15:53:00,78.0,30.0,29.96,WSW,243,13.0,24.0,17,-99.99,,,-99.99,847.960022,,2013-05-06 21:53:00,
2013-05-06 16:03:00,78.0,30.0,29.96,WSW,243,13.0,24.0,17,-99.99,,,-99.99,847.960022,,2013-05-06 22:03:00,
2013-05-06 16:12:00,79.0,30.0,29.95,WSW,250,9.0,20.0,16,-99.99,,,-99.99,775.429993,,2013-05-06 22:12:00,
2013-05-06 16:22:00,79.0,30.0,29.95,WSW,250,9.0,20.0,16,-99.99,,,-99.99,775.429993,,2013-05-06 22:22:00,
2013-05-06 16:33:00,78.0,29.0,29.94,West,260,11.0,22.0,16,-99.99,,,-99.99,529.280029,,2013-05-06 22:33:00,
2013-05-06 16:45:00,78.0,28.0,29.94,WSW,245,16.0,30.0,15,-99.99,,,-99.99,572.510010,,2013-05-06 22:45:00,
2013-05-06 16:52:00,78.0,28.0,29.94,WSW,245,16.0,30.0,15,-99.99,,,-99.99,572.510010,,2013-05-06 22:52:00,
2013-05-06 17:03:00,78.0,28.0,29.94,WSW,245,16.0,30.0,15,-99.99,,,-99.99,572.510010,,2013-05-06 23:03:00,
2013-05-06 17:12:00,78.0,28.0,29.94,SW,233,13.0,22.0,15,-99.99,,,-99.99,135.979996,,2013-05-06 23:12:00,
2013-05-06 17:22:00,78.0,28.0,29.94,SW,233,13.0,22.0,15,-99.99,,,-99.99,135.979996,,2013-05-06 23:22:00,
2013-05-06 17:32:00,78.0,28.0,29.93,WSW,241,13.0,23.0,15,-99.99,,,-99.99,279.630005,,2013-05-06 23:32:00,
2013-05-06 17:42:00,78.0,28.0,29.94,WSW,258,12.0,21.0,16,-99.99,,,-99.99,138.070007,,2013-05-06 23:42:00,
2013-05-06 17:52:00,78.0,28.0,29.94,WSW,258,12.0,21.0,16,-99.99,,,-99.99,138.070007,,2013-05-06 23:52:00,
2013-05-06 18:01:00,78.0,29.0,29.94,WSW,241,8.0,17.0,16,-99.99,,,-99.99,117.849998,,2013-05-07 00:01:00,
2013-05-06 18:11:00,78.0,29.0,29.94,WSW,245,7.0,12.0,16,-99.99,,,-99.99,85.070000,,2013-05-07 00:11:00,
2013-05-06 18:21:00,78.0,29.0,29.94,WSW,245,7.0,12.0,16,-99.99,,,-99.99,85.070000,,2013-05-07 00:21:00,
2013-05-06 18:31:00,78.0,29.0,29.93,SW,234,10.0,22.0,16,-99.99,,,-99.99,225.940002,,2013-05-07 00:31:00,
2013-05-06 18:41:00,80.0,29.0,29.93,West,269,9.0,17.0,15,-99.99,,,-99.99,296.369995,,2013-05-07 00:41:00,
2013-05-06 18:52:00,80.0,29.0,29.93,West,269,9.0,17.0,15,-99.99,,,-99.99,296.369995,,2013-05-07 00:52:00,
2013-05-06 19:01:00,80.0,29.0,29.93,West,269,9.0,17.0,15,-99.99,,,-99.99,296.369995,,2013-05-07 01:01:00,
2013-05-06 19:11:00,79.0,26.0,29.93,WSW,237,13.0,24.0,14,-99.99,,,-99.99,52.299999,,2013-05-07 01:11:00,
2013-05-06 19:21:00,79.0,26.0,29.93,WSW,237,13.0,24.0,14,-99.99,,,-99.99,52.299999,,2013-05-07 01:21:00,
2013-05-06 19:32:00,79.0,26.0,29.93,SW,231,9.0,22.0,14,-99.99,,,-99.99,47.419998,,2013-05-07 01:32:00,
2013-05-06 19:42:00,78.0,27.0,29.93,WSW,258,12.0,20.0,15,-99.99,,,-99.99,86.470001,,2013-05-07 01:42:00,
2013-05-06 19:53:00,78.0,27.0,29.93,WSW,258,12.0,20.0,15,-99.99,,,-99.99,86.470001,,2013-05-07 01:53:00,
2013-05-06 20:02:00,78.0,27.0,29.93,WSW,258,12.0,20.0,15,-99.99,,,-99.99,86.470001,,2013-05-07 02:02:00,
2013-05-06 20:11:00,77.0,29.0,29.94,WNW,284,11.0,16.0,17,-99.99,,,-99.99,17.430000,,2013-05-07 02:11:00,
2013-05-06 20:21:00,77.0,29.0,29.94,WNW,284,11.0,16.0,17,-99.99,,,-99.99,17.430000,,2013-05-07 02:21:00,
2013-05-06 20:32:00,76.0,29.0,29.95,WNW,295,9.0,17.0,17,-99.99,,,-99.99,3.490000,,2013-05-07 02:32:00,
2013-05-06 20:41:00,75.0,30.0,29.95,WNW,295,9.0,17.0,18,-99.99,,,-99.99,0.700000,,2013-05-07 02:41:00,
2013-05-06 20:52:00,75.0,30.0,29.95,WNW,295,9.0,17.0,18,-99.99,,,-99.99,0.700000,,2013-05-07 02:52:00,
2013-05-06 21:01:00,75.0,30.0,29.95,WNW,295,10.0,14.0,19,-99.99,,,-99.99,0.000000,,2013-05-07 03:01:00,
2013-05-06 21:11:00,74.0,30.0,29.96,WNW,296,9.0,12.0,19,-99.99,,,-99.99,0.000000,,2013-05-07 03:11:00,
2013-05-06 21:22:00,74.0,30.0,29.96,WNW,296,9.0,12.0,19,-99.99,,,-99.99,0.000000,,2013-05-07 03:22:00,
2013-05-06 21:32:00,73.0,30.0,29.96,NW,305,8.0,12.0,20,-99.99,,,-99.99,0.000000,,2013-05-07 03:32:00,
2013-05-06 21:42:00,73.0,30.0,29.96,NW,314,7.0,10.0,20,-99.99,,,-99.99,0.000000,,2013-05-07 03:42:00,
2013-05-06 21:53:00,73.0,30.0,29.96,NW,314,7.0,10.0,20,-99.99,,,-99.99,0.000000,,2013-05-07 03:53:00,
2013-05-06 22:02:00,71.0,30.0,29.97,NW,309,7.0,11.0,21,-99.99,,,-99.99,0.000000,,2013-05-07 04:02:00,
2013-05-06 22:12:00,71.0,30.0,29.97,WNW,302,8.0,10.0,21,-99.99,,,-99.99,0.000000,,2013-05-07 04:12:00,
2013-05-06 22:23:00,71.0,30.0,29.97,WNW,302,8.0,10.0,21,-99.99,,,-99.99,0.000000,,2013-05-07 04:23:00,
2013-05-06 22:33:00,70.0,29.0,29.97,NW,308,7.0,9.0,22,-99.99,,,-99.99,0.000000,,2013-05-07 04:33:00,
2013-05-06 22:42:00,69.0,29.0,29.97,NNW,332,5.0,8.0,22,-99.99,,,-99.99,0.000000,,2013-05-07 04:42:00,
2013-05-06 22:53:00,69.0,29.0,29.97,NNW,332,5.0,8.0,22,-99.99,,,-99.99,0.000000,,2013-05-07 04:53:00,
2013-05-06 23:02:00,67.0,29.0,29.98,North,357,4.0,6.0,23,-99.99,,,-99.99,0.000000,,2013-05-07 05:02:00,
2013-05-06 23:12:00,67.0,29.0,29.98,North,10,5.0,6.0,23,-99.99,,,-99.99,0.000000,,2013-05-07 05:12:00,
2013-05-06 23:22:00,67.0,29.0,29.98,North,10,5.0,6.0,23,-99.99,,,-99.99,0.000000,,2013-05-07 05:22:00,
2013-05-06 23:32:00,66.0,28.0,29.98,North,355,4.0,5.0,24,-99.99,,,-99.99,0.000000,,2013-05-07 05:32:00,
2013-05-06 23:42:00,65.0,28.0,29.98,NNW,347,4.0,5.0,24,-99.99,,,-99.99,0.000000,,2013-05-07 05:42:00,
2013-05-06 23:52:00,65.0,28.0,29.98,NNW,347,4.0,5.0,24,-99.99,,,-99.99,0.000000,,2013-05-07 05:52:00,